Regional Weather Roundup
Issued by NWS Bismarck, ND

Home | Current Version | Previous Version | Text Only | Print | Product List | Glossary On
Versions: 1 2 3 4 5 6 7 8 9 10 11 12 13 14 15 16 17 18 19 20 21 22 23 24 25 26 27 28 29 30 31 32 33 34 35 36 37 38 39 40 41 42 43 44 45 46 47 48 49 50
000
ASUS43 KBIS 201502
RWRBIS

NWR BROADCAST TEXT
NATIONAL WEATHER SERVICE BISMARCK ND
1000 AM CDT SUN AUG 20 2017

NOTE: "FAIR" INDICATES FEW OR NO CLOUDS BELOW 12,000 FEET WITH NO
SIGNIFICANT WEATHER AND/OR OBSTRUCTIONS TO VISIBILITY.


CITY           SKY/WX    TMP DP  RH WIND       PRES   REMARKS
WILLISTON      CLOUDY    59  42  53 CALM      30.09F
MINOT          MOSUNNY   65  44  46 SW8       30.05R
MINOT AFB      CLOUDY    65  42  43 NW7       30.04R
BISMARCK       CLOUDY    64  49  57 NW3       30.07R
DICKINSON      CLOUDY    57  47  69 CALM      30.09R
GARRISON         N/A     64  46  52 CALM      30.07R
HETTINGER ARPT CLOUDY    59  42  53 NE9       30.11R
JAMESTOWN      CLOUDY    61  51  70 NW6       30.03R
CARRINGTON     FAIR      63  50  63 NW9       30.05R
LINTON         FAIR      63  46  55 E3        30.07R
TIOGA          FAIR      61  41  48 W3        30.11S
$$

CITY           SKY/WX    TMP DP  RH WIND       PRES   REMARKS
GRAND FORKS    CLOUDY    65  52  62 NW13      29.95R
GRAND FORKS AF CLOUDY    64  50  59 N9        29.96R
DEVILS LAKE    SUNNY     64  47  53 NW13      30.02R
FARGO          CLOUDY    65  52  62 NW10      29.97R
CANDO          FAIR      64  48  55 NW7       30.03S
CAVALIER       FAIR      66  48  52 NW12      29.95R
GWINNER        SUNNY     64  54  68 NW9       30.01R
ROLLA          FAIR      64  45  48 NW10      30.03R
WALHALLA       FAIR      66  66 100 NW12      29.96R
$$

CITY           SKY/WX    TMP DP  RH WIND       PRES   REMARKS
ABERDEEN       CLOUDY    64  53  67 N13       29.99F
MOBRIDGE       PTSUNNY   62  51  67 N10       29.99F
BUFFALO          N/A     64  42  44 SE3       30.06R
RAPID CITY     SUNNY     67  47  48 N8        30.11R
GLASGOW        MOSUNNY   61  36  39 CALM      30.08S
SIDNEY         PTSUNNY   61  41  47 SE3       30.09F
WOLF POINT     CLOUDY    59  35  40 CALM      30.09S
GLENDIVE       CLOUDY    61  36  39 E6        30.10R
MILES CITY     CLOUDY    66  38  35 NE9       30.07R
BAKER          PTSUNNY   63  36  36 E15       30.10R
$$

CITY           SKY/WX    TMP DP  RH WIND       PRES   REMARKS
BILLINGS       SUNNY     63  37  38 N8        30.07S
GREAT FALLS    CLOUDY    62  36  37 SW14      30.06S
$$




USA.gov is the U.S. government's official web portal to all federal, state and local government web resources and services.